Overview Statistics Trail Chart Weather Telemetry Raw packets
 

This is the latest recevied weather packets stored in our database for station/object OH6GKW. If no packets are shown the sender has not sent any weather packets the latest 10 day(s).

<< 43 44 45 46 47 48 49 >>
Time Temp. Humidity Pressure Rain* Wind** Luminosity Snow
1788366824 18.89° C 70% 1002.1 hPa 0.25 mm - 86 W/m² -
1788366515 18.89° C 72% 1002.1 hPa 0.25 mm - 93 W/m² -
1788366210 18.89° C 70% 1002.1 hPa 0.25 mm - 104 W/m² -
1788365937 19.44° C 68% 1002.1 hPa 0.25 mm - 111 W/m² -
1788365629 19.44° C 65% 1002.2 hPa 0.25 mm - 120 W/m² -
1788365320 19.44° C 65% 1002.2 hPa 0.25 mm - 128 W/m² -
1788365015 19.44° C 63% 1002.2 hPa 0.25 mm - 137 W/m² -
1788364722 18.89° C 62% 1002.4 hPa 0.25 mm - 141 W/m² -
1788364418 18.89° C 61% 1002.4 hPa 0.25 mm - 153 W/m² -
1788364110 18.89° C 63% 1002.4 hPa 0.25 mm - 162 W/m² -
1788363810 18.89° C 62% 1002.4 hPa 0.25 mm - 172 W/m² -
1788363529 18.89° C 63% 1002.4 hPa 0.25 mm - 179 W/m² -
1788363250 18.89° C 63% 1002.4 hPa 0.25 mm - 190 W/m² -
1788362912 18.89° C 64% 1002.5 hPa 0.25 mm - 202 W/m² -
1788362636 18.89° C 63% 1002.5 hPa 0.25 mm - 211 W/m² -
1788362328 18.33° C 65% 1002.5 hPa 0.25 mm - 220 W/m² -
1788362020 18.33° C 65% 1002.5 hPa 0.25 mm - 230 W/m² -
1788361726 18.33° C 67% 1002.5 hPa 0.25 mm - 241 W/m² -
1788361428 18.33° C 67% 1002.5 hPa 0.25 mm - 252 W/m² -
1788361114 18.33° C 67% 1002.6 hPa 0.25 mm - 264 W/m² -
1788360807 18.33° C 67% 1002.6 hPa 0.25 mm - 274 W/m² -
1788360533 18.89° C 67% 1002.6 hPa 0.25 mm - 283 W/m² -
1788360227 18.89° C 65% 1002.6 hPa 0.25 mm - 290 W/m² -
1788359917 18.89° C 67% 1002.6 hPa 0.25 mm - 301 W/m² -
1788359612 18.89° C 65% 1002.6 hPa 0.25 mm - 311 W/m² -

* Rain since midnight (hover to see other rain measurements)
** Current wind speed in m/s (hover to see current wind gust speed)